Sault Ste Marie, MI

1:03 AM EDT on July 22, 2017 (GMT -0400)
Sault Ste Marie Municipal / Sanderson Field

Weather History for KANJ - October, 2013

Change the Weather History Date:

Saturday, October 5, 2013

  Actual Average Record
Temperature  
Mean Temperature 50 °F 50 °F  
Max Temperature 54 °F 58 °F 81 °F (2005)
Min Temperature 46 °F 41 °F 24 °F (1965)
Degree Days  
Heating Degree Days 15 15  
Month to date heating degree days 43 73  
Since 1 July heating degree days 412 474  
Cooling Degree Days 0 0  
Month to date cooling degree days 0 0  
Year to date cooling degree days 266 195  
Moisture  
Dew Point 42 °F    
Average Humidity 77    
Maximum Humidity 93    
Minimum Humidity 61    
Precipitation  
Precipitation 0.48 in 0.13 in 1.50 in (1941)
Month to date precipitation 0.61 0.65  
Year to date precipitation 35.72 23.64  
Snow  
Snow 0.00 in 0.10 in 1.00 in (1964)
Month to date snowfall 0.0 0.1  
Since 1 July snowfall 0.0 0.1  
Snow Depth 0.00 in    
Sea Level Pressure  
Sea Level Pressure 30.10 in    
Wind  
Wind Speed 9 mph (East)    
Max Wind Speed 15 mph    
Max Gust Speed 25 mph    
Visibility 9 miles    
Events Rain    
T = Trace of Precipitation, MM = Missing Value Source: NWS Daily Summary

Daily Weather History Graph

Daily Weather History Graph

Search for Another Location

Airport or City:

Trip Planner

Search our weather history database for the weather conditions in past years. The results will help you decide how hot, cold, wet, or windy it might be!

Date:

Astronomy

Oct. 05, 2013 Rise Set
Actual Time 7:41 AM EDT 7:09 PM EDT
Civil Twilight 7:11 AM EDT 7:39 PM EDT
Nautical Twilight 6:36 AM EDT 8:13 PM EDT
Astronomical Twilight 6:01 AM EDT 8:49 PM EDT
Moon 8:24 AM EDT (10/5) 7:21 PM EDT (10/5)
Length of Visible Light 12h 27m
Length of Day
11h 27m
New Moon, 0% of the Moon is Illuminated
Oct 5
New Moon
Oct 11
First Quarter
Oct 18
Full
Oct 26
Last Quarter
Nov 3
New

Hourly Weather History & Observations

Time (EDT) Temp. Windchill Dew Point Humidity Pressure Visibility Wind Dir Wind Speed Gust Speed Precip Events Conditions
12:55 AM 54.0 °F - 43.0 °F 66% 30.15 in 10.0 mi ENE 10.4 mph 17.3 mph N/A   Overcast
1:55 AM 54.0 °F - 41.0 °F 62% 30.16 in 10.0 mi ENE 6.9 mph - 0.00 in   Overcast
2:55 AM 53.1 °F - 41.0 °F 64% 30.15 in 10.0 mi ENE 8.1 mph - 0.00 in Rain Light Rain
3:55 AM 50.0 °F - 41.0 °F 71% 30.14 in 10.0 mi ENE 8.1 mph - 0.00 in Rain Light Rain
4:55 AM 50.0 °F - 39.9 °F 68% 30.16 in 10.0 mi ENE 9.2 mph - 0.00 in   Overcast
5:55 AM 50.0 °F - 39.0 °F 66% 30.16 in 10.0 mi ENE 9.2 mph - 0.00 in   Overcast
6:55 AM 48.9 °F - 39.0 °F 69% 30.16 in 7.0 mi East 6.9 mph - 0.01 in Rain Light Rain
7:55 AM 48.9 °F - 39.0 °F 69% 30.15 in 10.0 mi ENE 8.1 mph - 0.00 in   Overcast
8:55 AM 50.0 °F - 37.9 °F 63% 30.16 in 10.0 mi East 8.1 mph - N/A   Overcast
9:55 AM 46.9 °F - 41.0 °F 80% 30.16 in 5.0 mi East 8.1 mph - 0.04 in Rain Light Rain
10:55 AM 46.0 °F 41.9 °F 42.1 °F 86% 30.14 in 8.0 mi East 8.1 mph - 0.10 in Rain Light Rain
11:55 AM 46.0 °F 41.9 °F 42.1 °F 86% 30.12 in 10.0 mi East 8.1 mph - 0.02 in Rain Light Rain
12:55 PM 46.9 °F - 43.0 °F 86% 30.12 in 10.0 mi East 6.9 mph - 0.00 in Rain Light Rain
1:21 PM 46.9 °F - 43.0 °F 86% 30.11 in 10.0 mi East 10.4 mph - 0.00 in   Overcast
1:38 PM 48.0 °F - 43.0 °F 83% 30.10 in 10.0 mi East 9.2 mph - 0.00 in   Overcast
1:55 PM 48.0 °F - 43.0 °F 83% 30.10 in 10.0 mi East 10.4 mph 16.1 mph 0.00 in   Overcast
2:26 PM 48.0 °F - 43.0 °F 83% 30.09 in 10.0 mi East 9.2 mph - N/A   Overcast
2:55 PM 48.9 °F - 43.0 °F 80% 30.09 in 10.0 mi East 9.2 mph - N/A   Overcast
3:55 PM 50.0 °F - 43.0 °F 77% 30.07 in 10.0 mi East 9.2 mph - N/A   Overcast
4:55 PM 50.0 °F - 42.1 °F 74% 30.05 in 10.0 mi East 8.1 mph 19.6 mph N/A   Overcast
5:55 PM 50.0 °F - 42.1 °F 74% 30.06 in 10.0 mi East 10.4 mph - N/A   Overcast
6:55 PM 50.0 °F - 41.0 °F 71% 30.05 in 10.0 mi East 10.4 mph 17.3 mph N/A   Overcast
7:55 PM 48.0 °F - 42.1 °F 80% 30.03 in 9.0 mi East 9.2 mph 19.6 mph 0.00 in Rain Light Rain
8:55 PM 48.0 °F - 43.0 °F 83% 30.03 in 10.0 mi East 12.7 mph - 0.02 in Rain Light Rain
9:55 PM 46.9 °F - 44.1 °F 90% 30.03 in 7.0 mi East 9.2 mph - 0.04 in Rain Rain
10:08 PM 46.9 °F - 44.1 °F 90% 30.01 in 7.0 mi East 6.9 mph - 0.02 in Rain Rain
10:19 PM 46.9 °F - 44.1 °F 90% 30.01 in 6.0 mi East 8.1 mph - 0.04 in Rain Rain
10:55 PM 46.9 °F - 44.1 °F 90% 30.02 in 6.0 mi East 10.4 mph 18.4 mph 0.10 in Rain Rain
11:55 PM 46.9 °F - 44.1 °F 90% 29.96 in 8.0 mi East 15.0 mph 25.3 mph 0.11 in Rain Light Rain